Simultaneous Nadir Overpasses (SNOs) Predictions

Prediction of SNOs between NOAA-20 and TERRA Satellite Orbit:

Table of predicted SNOs for the next 14.0 days since TLE Epoch: 10/19/2024
Index Date (NOAA-20) Time (NOAA-20) Lat,Lon (NOAA-20) SZA (NOAA-20 ) Date (TERRA) Time (TERRA) Lat,Lon (TERRA) SZA (TERRA ) Distance(km) Time Diff (sec)
1 10/19/2024 19:57:45 73.16,-128.76 83.52 10/19/2024 19:58:55 73.01,-127.57 83.33 41.89 70
2 10/19/2024 20:48:20 -72.72, 39.47 96.93 10/19/2024 20:48:23 -72.70, 39.51 96.95 2.60 3
3 10/19/2024 21:38:59 72.35,-152.46 82.69 10/19/2024 21:37:47 72.41,-153.35 82.79 30.80 72
4 10/22/2024 07:10:13 73.24, 62.93 84.49 10/22/2024 07:11:22 73.13, 64.50 84.32 52.22 69
5 10/22/2024 08:00:46 -72.71,-128.62 96.07 10/22/2024 08:00:52 -72.71,-128.64 96.07 0.67 6
6 10/22/2024 08:51:27 72.44, 39.24 83.66 10/22/2024 08:50:15 72.48, 38.60 83.72 21.91 72
7 10/24/2024 18:22:40 73.30,-105.32 85.41 10/24/2024 18:23:48 73.21,-103.50 85.26 59.16 68
8 10/24/2024 19:13:12 -72.72, 63.25 95.20 10/24/2024 19:13:19 -72.73, 63.25 95.19 1.38 7
9 10/24/2024 20:03:54 72.50,-128.99 84.58 10/24/2024 20:02:41 72.55,-129.41 84.65 15.31 73
10 10/27/2024 05:35:05 73.29, 86.62 86.22 10/27/2024 05:36:14 73.18, 88.31 86.08 55.48 69
11 10/27/2024 06:25:38 -72.75,-104.92 94.33 10/27/2024 06:25:44 -72.76,-104.84 94.33 2.78 6
12 10/27/2024 07:16:19 72.48, 62.94 85.40 10/27/2024 07:15:07 72.53, 62.40 85.47 18.86 72
13 10/29/2024 16:47:28 73.24, -81.38 86.99 10/29/2024 16:48:38 73.12, -79.95 86.83 47.83 70
14 10/29/2024 17:38:02 -72.75, 86.97 93.51 10/29/2024 17:38:07 -72.75, 86.99 93.52 0.78 5
15 10/29/2024 18:28:42 72.43,-105.07 86.17 10/29/2024 18:27:30 72.52,-105.77 86.27 24.97 72
16 11/01/2024 03:59:51 73.16, 110.68 87.71 11/01/2024 04:01:01 73.07, 111.81 87.58 37.95 70
17 11/01/2024 04:50:26 -72.72, -81.07 92.75 11/01/2024 04:50:29 -72.74, -81.15 92.73 3.27 3



Historial Predications of SNOs between NOAA-20 and TERRA
